778  
ASHW40 PHFO 281343  
RWRHI  
 
WEATHER ROUNDUP FOR HAWAII  
NATIONAL WEATHER SERVICE HONOLULU HI  
300 AM HST TUE MAR 28 2017  
 
THIS IS AN AUTOMATED REPORT THAT HAS NOT BEEN QUALITY CONTROLLED.  
 
NOTE..."FAIR" INDICATES FEW OR NO CLOUDS BELOW 12,000 FEET WITH NO  
SIGNIFICANT WEATHER AND/OR S TO VISIBILITY
.  
 
* - THESE SITES REPORT LIMITED FIELDS  
 
HIZ001>004-281400-  
KAUAI-NIIHAU-  
 
CITY SKY/WX TMP DP RH WIND PRES REMARKS
 
LIHUE APT MOCLDY 74 68 81 E10 30.11F  
PORT ALLEN* N/A 68 N/A N/A NE5 N/A  
POIPU* N/A 73 N/A N/A NE6G12 N/A  
PRINCEVILLE* N/A 68 N/A N/A S3 N/A  
KOKOLE POINT* NOT AVBL  
MOLOAA DAIRY* N/A 72 66 83 E5G12 N/A  
WAIMEA HTS* N/A 68 59 73 N1 N/A  
PUU OPAE* NOT AVBL  
PUU LUA* NOT AVBL  
MAKAHA RIDGE* N/A N/A N/A N/A S2 N/A  

 
 
HIZ005>011-281400-  
OAHU-  
 
CITY SKY/WX TMP DP RH WIND PRES REMARKS
 
HONOLULU MOCLDY 74 64 71 NE6 30.08F  
KALAELOA MOCLDY 72 67 84 CALM 30.09F  
KANEOHE MCB NOT AVBL  
WHEELER FIELD NOT AVBL  
BELLOWS* N/A N/A N/A N/A E17 N/A  
KAHUKU* N/A N/A N/A N/A NE7G13 N/A  
WHEELER* N/A N/A N/A N/A NW3 N/A  
WAIANAE HARBOR N/A N/A N/A N/A NE2 N/A  
DILLINGHAM* N/A 68 59 73 W1G7 N/A  
KAHUKU TRN* N/A 82 77 83 W7G16 N/A HX 91  
KAWAILOA* N/A 68 64 88 E8G16 N/A  
KII* N/A 75 68 78 E13G18 N/A  
MAKUA RANGE* N/A 75 63 64 W3G10 N/A  
OAHU FOREST NW N/A 66 63 88 CALM N/A  
SCHOFIELD BRK* N/A 68 66 94 MISG N/A  
SCHOFIELD S* NOT AVBL  
WAIANAE VLY* N/A 72 63 73 W3G10 N/A  
KUAOKALA* N/A 72 1 6 E12G18 N/A  
HONOULIUULI* NOT AVBL  
MOKUOLOE IS* NOT AVBL  
PALEHUA* N/A 64 63 94 NE10G18 N/A  
WAIAWA PHB* NOT AVBL  

 
 
HIZ012>013-281400-  
MOLOKAI-  
 
CITY SKY/WX TMP DP RH WIND PRES REMARKS
 
MOLOKAI AIRPT PTCLDY 66 63 90 NW5 30.10F  
KALAUPAPA NOT AVBL  
MAKAPULAPAI* N/A 73 64 73 E12G20 N/A  
MOLOKAI 1* N/A N/A N/A N/A CALM N/A  
PUU ALII* N/A 57 57 100 E2G8 N/A  

 
 
HIZ016-281400-  
KAHOOLAWE-  
 
CITY SKY/WX TMP DP RH WIND PRES REMARKS
 
KAHOOLAWE* NOT AVBL  
HAKIOAWA* N/A 70 63 79 MISG N/A  
HONOKANAIA* N/A 74 64 69 NE16G26 30.03F  
KANELOA* N/A 72 66 83 NE15G25 30.16F  
KEALIALALO* NOT AVBL  
LUA MAKIKA* NOT AVBL  

 
 
HIZ014>015-281400-  
LANAI-  
 
CITY SKY/WX TMP DP RH WIND PRES REMARKS
 
LANAI CITY FAIR 64 61 90 NE6 30.14F  
LANAI 1* NOT AVBL  

 
 
HIZ017>028-281400-  
MAUI-  
 
CITY SKY/WX TMP DP RH WIND PRES REMARKS
 
KAHULUI CLEAR 66 61 84 SE8 30.09F  
KAPALUA-W MAUI NOT AVBL  
HANA AIRPORT CLOUDY 72 66 83 E8 30.12F  
HANA* N/A 75 N/A N/A E7G13 N/A  
HALEAKALA SUMM N/A 39 39 100 E9G29 N/A  
MAALAEA BAY* N/A 66 N/A N/A N6 N/A  
HALEAKALA* NOT AVBL  
KAUPO GAP* N/A 70 59 68 N8G15 N/A  
KULA 1* N/A 46 37 71 E3 N/A  

 
 
HIZ023>026-281400-  
BIG ISLAND OF HAWAII COAST AND LOWER SLOPES-  
 
CITY SKY/WX TMP DP RH WIND PRES REMARKS
 
KAILUA KONA CLEAR 74 59 59 E8 30.05F  
HILO LGT RAIN 66 61 82 W10 30.11S  
HONOKAA* N/A 63 N/A N/A VRB1 N/A  
KAWAIHAE MWT* N/A 73 N/A N/A NE1 N/A  
KAWAIHAE* N/A 73 N/A N/A E3 30.06F  
SOUTH POINT* N/A 68 N/A N/A N14G20 N/A  
UPOLU AIRPORT* NOT AVBL  
KAMUELA* PTSUNNY 52 50 93 E7 30.17S  
HAKALAU* N/A 48 48 100 S5G12 N/A  
KALOKO-HONOKO* N/A 73 59 60 E3G9 30.04F  
PALI 2* N/A 61 57 88 S10 N/A  
KEALAKOMO* N/A 73 68 83 N8 N/A  
KAUPULEHU* N/A 66 55 68 SE6 N/A  
KAPAPALA* N/A 58 53 83 N3 N/A  
LOWER KAHUKU* N/A 57 54 88 N2G10 N/A  
PUHE CS* N/A 72 57 60 E2 N/A  
PUHO CS* N/A 71 55 55 E3 N/A  
PTA KEAMUKU* N/A 55 48 76 CALM N/A  
WAIKOLOA* N/A 66 55 68 E7G16 N/A  

 
 
HIZ027>028-281400-  
BIG ISLAND OF HAWAII INTERIOR AND SUMMMITS-  
 
CITY SKY/WX TMP DP RH WIND PRES REMARKS
 
BRADSHAW FIELD NOT AVBL  
MK VISITOR CEN N/A 48 -26 4 E6 N/A  
MAUNA KEA* N/A 34 -31 5 E9 N/A WCI 26  
MAUNA LOA* N/A 43 -33 3 MISG N/A  
MAUNA LOA 1* NOT AVBL  
PTA KIPUKA* N/A 43 39 87 E3 N/A  
PTA RANGE 17* N/A 64 55 72 SE12G17 N/A  
PTA WEST* N/A 50 39 66 SE8 N/A  
NENE CABIN* N/A N/A N/A N/A VRB6 N/A  
AHUMOA* N/A 43 36 75 E9 N/A  
PTA PORTABLE* NOT AVBL  
PUU MALI* N/A 48 41 76 S3G9 N/A  

 
 
HIC003-281400-  
NORTHWEST ISLANDS-  
 
CITY SKY/WX TMP DP RH WIND PRES REMARKS
 
MIDWAY ISLAND CLOUDY 72 70 94 S13 29.97F  
MIDWAY NOS* N/A 72 N/A N/A MISG 29.95F  
FRENCH FRIGATE NOT AVBL  

 
 
PHZ110>124-180-281400-  
BUOY REPORTS  
 
STATION/POSITION TIME TEMP WIND PRES WAVE SWELL
 
AIR SEA DIR/SP/G HT/PER HT/DIR  
(UTC) (F) (DEG/KT/KT) (MB) (FT/S) (FT/D)  
BUOY 51001 1310 75 76 130/ 4/ 8 1019.9  
BUOY 51101 1250 75 76 130/ 6/ 10 1020.4F 9/14 8/320  
BUOY 51100 NOT AVBL  
BUOY 51002 1310 77 78 70/ 17/ 23 1016.5  
BUOY 51003 1250 77 78 80/ 12/ 14 1018.0F 8/14 8/300  
BUOY 51004 1250 77 70/ 19/ 23 1017.4F 11/16 8/320  
BARBERS PT BUOY NOT AVBL  
WAIMEA BAY BUOY 1302 76 N/A 7/14 5/330  
KAILUA BAY BUOY 1304 76 N/A 7/ 9 2/110  
LANAI BUOY 1315 78 N/A 5/14 3/270  
BARBERS PT 2 NOT AVBL  
PAUWELA MAUI 1309 76 N/A 6/14 3/330  
HILO 1312 78 N/A 9/10 5/110  
KANEOHE BAY BUOY 1325 75 N/A 5/ 8 2/ 10  
HANALEI KAUAI 1322 78 N/A 8/14 7/310  
KAHULUI HARBOR 1312 70 77 60/ 2/ 4 1018.7  
HONOLULU HARBOR 1312 74 78 60/ 1/ 2 1019.4  
KILO NALU NOT AVBL  
HILO HARBOR 1312 68 76 160/ 4/ 6 1019.4  
MOKUOLOE 1236 76 79 100/ 10/ 13 1019.0F  
NAWILIWILI 1318 75 70/ 11/ 13 1018.9  
WHOTS BUOY NOT AVBL  
BUOY 51028 NOT AVBL  

 
   
.....................KEY.....................................
 
 
SKY/WX - SKY CONDITIONS/PRESENT WEATHER  
TMP - TEMPERATURE IN FAHRENHEIT  
DWPT - DEWPOINT IN FAHRENHEIT  
RH - RELATIVE HUMIDITY IN PERCENT  
WIND - DIRECTION AND SPEED /MPH FOR ISLANDS...KTS FOR BUOYS/  
PRES - MEAN SEA LEVEL PRESSURE IN INCHES OF HG  
VSB - VISIBILITY IN MILES  
HX - HEAT INDEX  
WCI - WIND CHILL INDEX  
VRB - VARIABLE WIND DIRECTION  
N/A - NOT AVAILABLE  
 
 
CLICK HERE TO GO TO PREVIOUS BULLETINS.

The Nexlab HI Page Main Text Page